Simultaneous Nadir Overpasses (SNOs) Predictions

Prediction of SNOs between AQUA and METOP-A Satellite Orbit:

Table of predicted SNOs for the next 14.0 days since TLE Epoch: 1/4/2019
Index Date (AQUA) Time (AQUA) Lat,Lon (AQUA) SZA (AQUA ) Date (METOP-A) Time (METOP-A) Lat,Lon (METOP-A) SZA (METOP-A ) Distance(km) Time Diff (sec)
1 01/06/2019 23:51:38 -74.45, -5.08 83.05 01/06/2019 23:50:28 -74.43, -6.61 82.99 45.49 70
2 01/07/2019 00:41:13 74.80, 161.67 97.34 01/07/2019 00:41:00 74.79, 161.69 97.33 1.20 13
3 01/07/2019 01:30:39 -74.85, -30.80 82.62 01/07/2019 01:31:41 -74.84, -30.86 82.64 2.23 62
4 01/09/2019 19:25:52 -74.42, 61.42 83.44 01/09/2019 19:24:43 -74.37, 59.65 83.40 53.24 69
5 01/09/2019 20:15:27 74.78,-131.83 96.95 01/09/2019 20:15:14 74.78,-131.94 96.96 3.07 13
6 01/09/2019 21:04:54 -74.88, 35.57 82.96 01/09/2019 21:05:54 -74.88, 35.65 82.97 2.16 60
7 01/12/2019 15:00:07 -74.40, 127.91 83.89 01/12/2019 14:58:58 -74.36, 126.03 83.83 56.70 69
8 01/12/2019 15:49:43 74.81, -65.47 96.56 01/12/2019 15:49:28 74.82, -65.43 96.57 1.31 15
9 01/12/2019 16:39:09 -74.85, 102.07 83.40 01/12/2019 16:40:09 -74.86, 102.02 83.40 1.90 60
10 01/15/2019 10:34:22 -74.38,-165.60 84.39 01/15/2019 10:33:13 -74.34,-167.60 84.32 60.14 69
11 01/15/2019 11:23:58 74.80, 1.00 96.07 01/15/2019 11:23:43 74.80, 0.94 96.08 2.02 15
12 01/15/2019 12:13:25 -74.88, 168.43 83.85 01/15/2019 12:14:23 -74.90, 168.52 83.85 3.11 58
13 01/18/2019 06:08:36 -74.37, -99.13 84.94 01/18/2019 06:07:28 -74.28,-101.36 84.90 67.90 68
14 01/18/2019 06:58:13 74.84, 67.34 95.58 01/18/2019 06:57:56 74.83, 67.43 95.58 2.70 17
15 01/18/2019 07:47:39 -74.87,-125.10 84.40 01/18/2019 07:48:37 -74.88,-125.12 84.39 1.39 58




NCC Satellite Simultaneous Nadir Overpasses (SNOs) Prediction Service
